Quincy, IL

10:56 PM CDT on April 22, 2018 (GMT -0500)
Quincy Regional-Baldwin

Weather History for KUIN - July, 2014

Change the Weather History Date:

Tuesday, July 22, 2014

  Actual Average Record
Temperature  
Mean Temperature 78 °F 76 °F  
Max Temperature 85 °F 86 °F 111 °F (1901)
Min Temperature 70 °F 66 °F 50 °F (1947)
Degree Days  
Heating Degree Days 0 0  
Month to date heating degree days 5 0  
Since 1 June heating degree days 9 16  
Since 1 July heating degree days 5 0  
Cooling Degree Days 13 11  
Month to date cooling degree days 149 242  
Year to date cooling degree days 559 555  
Since 1 June cooling degree days 416 469  
Growing Degree Days 27 (Base 50)    
Moisture  
Dew Point 72 °F    
Average Humidity 83    
Maximum Humidity 91    
Minimum Humidity 74    
Precipitation  
Precipitation 0.02 in 0.13 in 4.62 in (1951)
Month to date precipitation 2.07 2.94  
Year to date precipitation 18.63 21.02  
Sea Level Pressure  
Sea Level Pressure 30.01 in    
Wind  
Wind Speed 7 mph (South)    
Max Wind Speed 17 mph    
Max Gust Speed 21 mph    
Visibility 7 miles    
Events Rain , Thunderstorm    
T = Trace of Precipitation, MM = Missing Value Source: NWS Daily Summary

Daily Weather History Graph

Daily Weather History Graph

Search for Another Location

Airport or City:

Astronomy

Jul. 22, 2014 Rise Set
Actual Time 5:54 AM CDT 8:27 PM CDT
Civil Twilight 5:23 AM CDT 8:58 PM CDT
Nautical Twilight 4:44 AM CDT 9:37 PM CDT
Astronomical Twilight 4:00 AM CDT 10:20 PM CDT
Moon 2:27 AM CDT (7/22) 5:05 PM CDT (7/22)
Length of Visible Light 15h 35m
Length of Day
14h 33m
Waning Crescent, 16% of the Moon is Illuminated
Jul 22
Waning Crescent
Jul 26
New
Aug 3
First Quarter
Aug 10
Full
Aug 17
Last Quarter

Hourly Weather History & Observations

Time (CDT) Temp. Heat Index Dew Point Humidity Pressure Visibility Wind Dir Wind Speed Gust Speed Precip Events Conditions
12:54 AM 73.0 °F - 66.9 °F 81% 30.03 in 7.0 mi SSE 8.1 mph - N/A   Clear
1:54 AM 73.0 °F - 66.9 °F 81% 30.02 in 7.0 mi SSE 8.1 mph - N/A   Clear
2:54 AM 72.0 °F - 66.9 °F 84% 30.01 in 7.0 mi South 5.8 mph - N/A   Clear
3:54 AM 71.1 °F - 66.9 °F 87% 30.01 in 6.0 mi South 8.1 mph - N/A   Clear
4:54 AM 71.1 °F - 66.0 °F 84% 30.02 in 7.0 mi South 8.1 mph - N/A   Clear
5:54 AM 70.0 °F - 66.0 °F 87% 30.03 in 5.0 mi SSW 8.1 mph - N/A   Clear
6:54 AM 72.0 °F - 66.0 °F 81% 30.04 in 7.0 mi South 9.2 mph - N/A   Scattered Clouds
7:54 AM 73.9 °F - 66.9 °F 79% 30.01 in 8.0 mi South 12.7 mph - N/A   Clear
8:54 AM 75.9 °F - 68.0 °F 76% 30.02 in 9.0 mi SSW 11.5 mph - N/A   Clear
9:54 AM 75.0 °F - 69.1 °F 82% 30.05 in 8.0 mi Calm Calm - N/A   Mostly Cloudy
10:54 AM 73.9 °F - 69.1 °F 85% 30.09 in 7.0 mi East 10.4 mph - N/A Thunderstorm Overcast
11:22 AM 73.9 °F - 69.1 °F 85% 30.06 in 4.0 mi South 10.4 mph - 0.01 in Rain , Thunderstorm Light Thunderstorms and Rain
11:54 AM 73.4 °F - 69.8 °F 88% 30.01 in 6.0 mi South 11.5 mph - N/A   Partly Cloudy
12:47 PM 75.9 °F - 72.0 °F 87% 30.00 in 6.0 mi West 13.8 mph - 0.01 in Rain Light Rain
12:54 PM 77.0 °F - 72.0 °F 84% 29.97 in 7.0 mi SW 12.7 mph 19.6 mph 0.01 in Rain Light Rain
1:54 PM 80.1 °F 84.5 °F 73.9 °F 81% 29.96 in 7.0 mi SW 11.5 mph - 0.00 in   Clear
2:54 PM 82.9 °F 90.2 °F 75.0 °F 77% 29.97 in 8.0 mi SSW 9.2 mph - N/A   Clear
3:54 PM 84.0 °F 92.6 °F 75.9 °F 76% 29.96 in 7.0 mi South 8.1 mph - N/A   Scattered Clouds
4:03 PM 84.0 °F 92.6 °F 75.9 °F 76% 29.99 in 7.0 mi SSW 9.2 mph - N/A   Mostly Cloudy
4:54 PM 84.9 °F 94.1 °F 75.9 °F 74% 29.98 in 7.0 mi South 3.5 mph - N/A   Overcast
5:35 PM 84.9 °F 95.3 °F 77.0 °F 77% 30.00 in 7.0 mi SE 4.6 mph - N/A   Overcast
5:54 PM 84.9 °F 95.3 °F 77.0 °F 77% 29.97 in 7.0 mi SE 6.9 mph - N/A   Mostly Cloudy
6:54 PM 84.0 °F 94.8 °F 78.1 °F 82% 29.97 in 6.0 mi SE 3.5 mph - N/A   Haze
7:19 PM 84.0 °F 94.8 °F 78.1 °F 82% 30.00 in 6.0 mi East 3.5 mph - N/A   Haze
7:54 PM 84.0 °F 94.8 °F 78.1 °F 82% 29.99 in 6.0 mi NE 4.6 mph - N/A   Haze
8:13 PM 82.9 °F 92.8 °F 78.1 °F 85% 30.01 in 6.0 mi East 5.8 mph - N/A   Haze
8:54 PM 82.4 °F 90.9 °F 77.0 °F 84% 30.02 in 7.0 mi SE 5.8 mph - N/A   Overcast
9:54 PM 81.0 °F 87.3 °F 75.9 °F 85% 29.99 in 7.0 mi South 3.5 mph - N/A   Clear
10:54 PM 79.0 °F - 75.9 °F 90% 29.99 in 6.0 mi SSW 3.5 mph - N/A   Mostly Cloudy
11:07 PM 80.1 °F 85.4 °F 75.9 °F 87% 30.00 in 6.0 mi South 3.5 mph - N/A   Overcast
11:35 PM 80.1 °F 85.4 °F 75.9 °F 87% 30.01 in 6.0 mi North 4.6 mph - N/A   Overcast